Location: ????????
(37.6846°N, 24.0673°E)
Time: 14:20:46
(UTC+00:00)

ADEOS II - Pass Details

Date: 14 July 2020
Orbit: 799 x 801 km, 98.5° (Epoch: 03 August)

Event Time Altitude Azimuth Distance (km) Brightness Sun altitude
Rises 01:19:04 0° 5° (N) 3,316 6.2 -18.6°
Reaches altitude 10° 01:21:30 10° 359° (N) 2,381 5.2 -18.2°
Maximum altitude 01:26:26 43° 289° (WNW) 1,115 2.6 -17.6°
Enters shadow 01:28:37 28° 239° (WSW) 1,452 2.9 -17.3°
